Regional Weather Roundup
Issued by NWS Midland/Odessa, TX

Skip options and go directly to product.
Home | Oldest Version | Previous Version | Current Version | All | Text Only | Save Text | Print | Product List | Glossary On

Skip product version selection by date and time.   
404
ASUS44 KMAF 211410
RWRMAF
MIDLAND AREA WEATHER ROUNDUP
NATIONAL WEATHER SERVICE MIDLAND TX
800 AM CST SUN DEC 21 2014

...IN SOUTHWEST TEXAS AND SOUTHEAST NEW MEXICO...

CITY           SKY/WX    TMP DP  RH WIND       PRES   REMARKS
ALPINE         MOCLDY    44  26  47 SW14      30.10R WCI  38
ANDREWS        CLOUDY    38  38 100 SW7       29.99R FOG     WCI  33
ARTESIA        CLEAR     34  23  64 SW5       29.98S WCI  30
BIG SPRING     CLOUDY    46  42  85 S10       30.01S
CARLSBAD       PTCLDY    33  26  75 W3        29.98R
DRYDEN           N/A     49  48  97 SE5       30.03S
FORT STOCKTON  PTCLDY    41  29  62 SW10      30.00S WCI  35
GUAD PASS      NOT AVBL
HOBBS          CLEAR     32  32 100 S6        29.97R WCI  26
MARFA          MOCLDY    27  21  80 W3        30.08R
MIDLAND AIRPK  FOG       44  44 100 S10       29.99F VSB 1   WCI  39
MIDLAND INTL   FOG       41  40  96 SW9       29.98S VSB 1/4 WCI  35
ODESSA         FOG       42  40  92 SW13      29.99R VSB 3/4 WCI  35
PECOS          MOCLDY    31  24  77 S6        30.01R WCI  25
PRESIDIO       FAIR      39  30  69 CALM      30.08R
SEMINOLE       FOG       38  38 100 SW5       29.98S VSB 3/4 WCI  34
SNYDER         MOCLDY    46  42  86 S10       29.98F
WINK           FOG       34  31  88 N3        29.99S VSB 1/4
$$
...OTHER STATIONS IN TEXAS...

CITY           SKY/WX    TMP DP  RH WIND       PRES   REMARKS
ABILENE        CLOUDY    48  44  86 S10       30.01S
AMARILLO       CLEAR     29  28  96 S8        29.85S WCI  21
AUSTIN         CLOUDY    50  46  86 SE5       30.10F
BROWNSVILLE    CLOUDY    59  56  89 NW9       30.06S
CORPUS CHRISTI CLOUDY    54  52  93 N7        30.09S FOG
DALLAS FTW     CLOUDY    47  43  86 SE9       30.08F
DEL RIO        CLOUDY    49  46  90 SE10      30.08R FOG
EL PASO        MOCLDY    34  26  72 CALM      30.06R
HOUSTON INT    CLOUDY    49  45  86 NE6       30.14S
LUBBOCK        PTCLDY    36  35  96 SW9       29.90F FOG     WCI  29
SAN ANGELO     CLOUDY    49  44  83 S12       30.02F
SAN ANTONIO    DRIZZLE   52  49  89 S7        30.09F FOG
WACO           CLOUDY    47  45  93 SE6       30.11S
WICHITA FALLS  NOT AVBL
$$
...OTHER LOCATIONS IN NEW MEXICO...

CITY           SKY/WX    TMP DP  RH WIND       PRES   REMARKS
ALAMAGORDO     PTCLDY    28  23  80 E3        30.07R
ALBUQUERQUE    MOCLDY    31  24  75 SW6       30.04F WCI  25
CANNON AFB     CLEAR     34  23  64 W9        29.89R WCI  26
CLOVIS         PTCLDY    36  23  60 W14       29.88R WCI  27
HOLLOMAN AFB   PTCLDY    28  23  82 SE1       30.06R
ROSWELL        PTCLDY    32  21  64 SE5       29.94F WCI  27
RUIDOSO        PTCLDY    36  18  48 NW12G22   30.01F WCI  27
SANTA FE       PTCLDY    33  23  66 N12       29.97F WCI  24
TRUTH OR CONSE CLEAR     30  23  75 CALM      30.06R
TUCUMCARI      CLEAR     29  21  72 S3        29.86R
$$

USA.gov is the U.S. government's official web portal to all federal, state and local government web resources and services.